Weather History for Bradford, PA

Change the Weather History Date:

Friday, November 23, 2012

  Actual Average Record
Temperature  
Mean Temperature 38 °F 34 °F  
Max Temperature 48 °F 42 °F 64 °F (1979)
Min Temperature 28 °F 27 °F -1 °F (1971)
Degree Days  
Heating Degree Days 27 26  
Month to date heating degree days 508  
Since 1 July heating degree days 1501  
Cooling Degree Days 0 0  
Month to date cooling degree days 0  
Year to date cooling degree days 193  
Moisture  
Dew Point 30 °F    
Average Humidity 68    
Maximum Humidity 85    
Minimum Humidity 44    
Precipitation  
Precipitation 0.04 in 0.14 in 0.52 in (1961)
Month to date precipitation 2.84  
Year to date precipitation 40.14  
Sea Level Pressure  
Sea Level Pressure 29.79 in    
Wind  
Wind Speed 9 mph (WSW)    
Max Wind Speed 22 mph    
Max Gust Speed 31 mph    
Visibility 8 miles    
Events Rain , Snow    
T = Trace of Precipitation, MM = Missing Value Source: NWS Daily Summary

Daily Weather History Graph

Daily Weather History Graph

Search for Another Location

Airport:

Trip Planner

Search our weather history database for the weather conditions in past years. The results will help you decide how hot, cold, wet, or windy it might be!

Date:

Astronomy

Nov. 23, 2012 Rise Set
Actual Time 7:14 AM EST 4:47 PM EST
Civil Twilight 6:43 AM EST 5:18 PM EST
Nautical Twilight 6:09 AM EST 5:52 PM EST
Astronomical Twilight 5:36 AM EST 6:25 PM EST
Moon 2:04 PM EST (11/23) 2:27 AM EST (11/23)
Length of Visible Light 10h 34m
Length of Day
9h 33m
Waxing Gibbous, 79% of the Moon is Illuminated
Nov 23
Waxing Gibbous
Nov 28
Full
Dec 6
Last Quarter
Dec 13
New
Dec 20
First Quarter

Hourly Weather History & Observations

Time (EST) Temp. Windchill Dew Point Humidity Pressure Visibility Wind Dir Wind Speed Gust Speed Precip Events Conditions
12:53 AM 45.0 °F 42.6 °F 25.0 °F 46% 30.00 in 10.0 mi South 4.6 mph - N/A   Clear
1:53 AM 44.1 °F 41.5 °F 25.0 °F 47% 29.98 in 10.0 mi Variable 4.6 mph - N/A   Clear
2:53 AM 44.1 °F 40.1 °F 25.0 °F 47% 29.95 in 10.0 mi South 6.9 mph - N/A   Clear
3:53 AM 46.0 °F 41.9 °F 25.0 °F 44% 29.93 in 10.0 mi South 8.1 mph - N/A   Clear
4:53 AM 46.0 °F 41.4 °F 26.1 °F 46% 29.90 in 10.0 mi South 9.2 mph - N/A   Clear
5:53 AM 46.9 °F - 27.0 °F 46% 29.87 in 10.0 mi South 8.1 mph - N/A   Clear
6:53 AM 46.0 °F 42.5 °F 28.0 °F 50% 29.86 in 10.0 mi Variable 6.9 mph - N/A   Clear
8:15 AM 46.9 °F - 30.0 °F 52% 29.82 in 10.0 mi SSW 8.1 mph - N/A   Mostly Cloudy
8:53 AM 48.0 °F - 30.9 °F 52% 29.81 in 10.0 mi SSW 8.1 mph - N/A   Overcast
9:53 AM 46.9 °F - 37.9 °F 71% 29.81 in 7.0 mi SW 11.5 mph 19.6 mph 0.00 in Rain Light Rain
10:53 AM 45.0 °F 40.6 °F 39.0 °F 80% 29.80 in 7.0 mi SW 8.1 mph 16.1 mph 0.02 in Rain Light Rain
11:03 AM 45.0 °F 40.1 °F 39.0 °F 80% 29.78 in 3.0 mi SSW 9.2 mph - 0.00 in Rain Light Rain
11:26 AM 44.1 °F 39.5 °F 39.9 °F 85% 29.77 in 5.0 mi SW 8.1 mph - 0.01 in Rain Light Rain
11:53 AM 45.0 °F 38.5 °F 39.9 °F 82% 29.77 in 8.0 mi SW 13.8 mph 20.7 mph 0.02 in   Overcast
12:53 PM 45.0 °F 40.6 °F 39.9 °F 82% 29.75 in 7.0 mi SW 8.1 mph - N/A   Overcast
1:20 PM 46.0 °F 41.0 °F 39.9 °F 79% 29.72 in 8.0 mi SW 10.4 mph - N/A   Overcast
1:53 PM 46.0 °F 41.4 °F 39.9 °F 79% 29.73 in 9.0 mi SSW 9.2 mph - N/A   Overcast
2:31 PM 46.9 °F - 39.0 °F 74% 29.70 in 10.0 mi SW 11.5 mph 19.6 mph N/A   Mostly Cloudy
2:42 PM 46.9 °F - 39.0 °F 74% 29.70 in 10.0 mi SW 8.1 mph 19.6 mph N/A   Scattered Clouds
2:53 PM 48.0 °F - 39.0 °F 71% 29.71 in 10.0 mi SSW 9.2 mph 19.6 mph N/A   Scattered Clouds
3:13 PM 46.9 °F - 37.9 °F 71% 29.69 in 10.0 mi SW 9.2 mph 19.6 mph N/A   Mostly Cloudy
3:53 PM 48.0 °F - 39.0 °F 71% 29.69 in 10.0 mi South 5.8 mph 16.1 mph N/A   Overcast
4:17 PM 46.9 °F - 39.0 °F 74% 29.68 in 10.0 mi Variable 6.9 mph - N/A   Mostly Cloudy
4:33 PM 46.0 °F 42.5 °F 37.9 °F 73% 29.68 in 10.0 mi SW 6.9 mph - N/A   Scattered Clouds
4:53 PM 45.0 °F 40.6 °F 37.9 °F 76% 29.71 in 10.0 mi West 8.1 mph - N/A   Clear
5:13 PM 39.9 °F 30.0 °F 32.0 °F 73% 29.72 in 10.0 mi NW 21.9 mph 31.1 mph N/A   Mostly Cloudy
5:21 PM 39.9 °F 31.8 °F 32.0 °F 73% 29.73 in 10.0 mi WNW 15.0 mph 27.6 mph N/A   Overcast
5:53 PM 39.0 °F 30.6 °F 30.0 °F 70% 29.76 in 10.0 mi West 15.0 mph 24.2 mph N/A   Overcast
6:53 PM 37.9 °F 30.5 °F 26.1 °F 62% 29.78 in 10.0 mi West 11.5 mph - N/A   Overcast
7:36 PM 36.0 °F 26.7 °F 23.0 °F 59% 29.77 in 10.0 mi West 15.0 mph 26.5 mph N/A   Overcast
7:53 PM 35.1 °F 26.4 °F 23.0 °F 61% 29.81 in 10.0 mi West 12.7 mph 21.9 mph 0.00 in   Overcast
8:31 PM 34.0 °F 25.5 °F 23.0 °F 64% 29.79 in 7.0 mi West 11.5 mph 21.9 mph 0.00 in Snow Light Snow
8:39 PM 33.1 °F 21.5 °F 23.0 °F 66% 29.79 in 9.0 mi West 19.6 mph 27.6 mph 0.00 in Snow Light Snow
8:53 PM 33.1 °F 22.6 °F 21.9 °F 64% 29.82 in 9.0 mi West 16.1 mph 28.8 mph 0.00 in   Overcast
9:53 PM 30.9 °F 20.2 °F 21.9 °F 69% 29.82 in 4.0 mi West 15.0 mph 25.3 mph 0.00 in Snow Light Snow
9:58 PM 30.9 °F 21.2 °F 23.0 °F 72% 29.78 in 1.8 mi West 12.7 mph 23.0 mph 0.00 in Snow Light Snow
10:07 PM 30.9 °F 21.2 °F 23.0 °F 72% 29.78 in 2.5 mi West 12.7 mph 26.5 mph 0.00 in Snow Light Snow
10:17 PM 30.0 °F 21.7 °F 24.1 °F 79% 29.79 in 1.2 mi WSW 9.2 mph 20.7 mph 0.00 in Snow Light Snow
10:31 PM 30.0 °F 21.1 °F 25.0 °F 82% 29.79 in 1.5 mi WSW 10.4 mph 18.4 mph 0.00 in Snow Light Snow
10:37 PM 30.0 °F 19.1 °F 24.1 °F 79% 29.79 in 3.0 mi West 15.0 mph 20.7 mph 0.00 in Snow Light Snow
10:53 PM 30.0 °F 18.7 °F 24.1 °F 79% 29.82 in 5.0 mi West 16.1 mph 21.9 mph 0.00 in Snow Light Snow
11:46 PM 28.9 °F 17.7 °F 23.0 °F 78% 29.78 in 2.0 mi West 15.0 mph 25.3 mph 0.00 in Snow Light Snow
11:53 PM 28.9 °F 19.8 °F 23.0 °F 78% 29.82 in 3.0 mi West 10.4 mph 25.3 mph 0.00 in Snow Light Snow